Theta_e
319 318 318 318 319 321 320 321 322 321 323 324 324 324 323 324 326 327 327 328 327 328 330 329 329 329 329 329 329 329 329 328 327 325 325 326 324 324 328 327 327 328 327 326 324 320 318 315 318 325 327 327 327 327 328 328 329 329 329 330 330 330 330
319 318 319 319 318 319 317 318 318 319 320 322 323 322 321 322 324 323 322 322 322 324 325 324 325 326 326 326 328 328 328 329 329 329 327 326 326 325 325 325 326 325 326 326 326 324 318 316 316 318 320 326 327 327 328 328 329 330 330 330 331 331 330
316 316 316 315 315 315 314 315 316 317 318 319 321 319 318 317 317 317 317 316 317 319 321 321 321 322 323 324 324 325 326 326 329 329 327 327 327 327 326 325 323 323 323 322 323 322 322 320 316 317 320 319 319 323 327 328 329 329 330 330 330 331 331
314 314 313 312 312 312 311 312 313 315 317 318 319 317 314 312 313 313 312 312 313 314 315 315 316 317 320 322 324 325 325 325 326 327 327 328 328 327 326 326 324 323 321 319 319 321 320 318 318 318 319 321 320 320 325 328 328 329 329 330 330 330 331
314 313 312 310 310 310 311 310 312 313 314 316 317 315 311 310 310 310 310 309 309 309 309 310 310 311 313 315 319 321 323 325 326 326 325 325 325 326 326 326 324 324 323 322 323 322 320 319 319 318 319 321 321 322 325 327 328 328 328 329 330 330 331
311 311 310 309 309 309 309 310 311 311 313 313 314 313 309 308 308 308 308 307 307 308 307 306 307 308 308 310 313 317 319 320 323 324 324 324 325 324 324 325 325 324 324 325 325 323 323 323 320 317 320 322 318 320 323 325 323 327 328 328 329 330 331
308 308 308 307 308 308 309 309 310 310 310 311 312 311 308 307 306 306 306 305 305 305 305 305 305 305 305 307 309 311 312 315 318 318 320 321 324 326 327 325 325 325 325 326 326 325 323 321 320 319 319 320 321 319 323 323 325 322 325 328 329 330 330
307 306 306 307 306 306 307 307 308 309 309 310 311 311 308 306 305 304 304 303 302 303 303 303 303 303 303 304 307 307 309 311 312 313 315 317 319 322 324 325 324 325 325 325 325 324 325 324 323 321 319 315 316 318 318 322 323 323 323 326 328 329 329
308 306 305 306 306 306 306 306 306 307 308 309 310 311 310 307 305 303 303 302 301 301 301 301 300 301 301 301 303 304 305 307 306 308 311 313 315 318 320 323 324 324 326 326 326 325 326 326 325 324 322 319 315 313 317 316 319 320 326 324 328 329 329
305 304 304 304 304 305 305 305 305 305 306 307 307 308 307 307 304 303 301 301 300 300 300 300 299 299 299 299 300 300 301 302 303 304 306 308 310 313 316 318 321 323 325 326 326 326 326 325 325 325 325 322 319 314 313 313 316 318 323 326 322 326 329
305 304 304 303 303 303 303 303 303 303 304 306 306 305 305 304 303 302 300 299 299 299 299 298 298 298 298 298 299 299 299 300 300 301 303 304 306 309 312 313 315 317 322 324 325 326 326 325 325 325 325 324 323 318 317 314 315 320 320 325 326 325 328
305 304 304 303 303 301 301 301 301 301 302 303 303 303 303 301 300 299 299 298 298 297 297 297 298 297 297 297 298 298 299 299 299 300 302 304 305 307 308 309 312 313 316 319 323 325 326 325 325 325 325 325 323 322 319 317 313 319 323 321 325 328 327
305 304 303 302 301 301 301 300 300 300 300 301 301 302 301 300 299 298 298 297 297 297 296 297 297 296 297 297 297 298 299 299 299 300 301 303 305 306 307 308 309 312 314 316 320 323 325 325 325 325 325 324 324 323 322 318 315 315 321 323 325 326 328
302 303 303 303 301 301 301 301 300 300 300 299 300 300 299 299 298 298 297 297 296 296 296 296 296 296 296 296 297 298 298 299 299 300 301 302 304 305 306 307 309 312 314 316 318 321 323 325 324 325 325 325 323 323 322 319 316 316 320 322 324 324 327
302 302 302 302 302 301 301 300 300 299 298 299 299 299 299 298 298 297 297 296 296 296 295 295 296 295 295 295 296 297 298 298 299 300 301 302 303 305 307 307 309 308 310 312 315 318 322 324 323 323 324 323 323 322 323 320 318 317 316 319 320 324 325
300 300 300 300 300 301 301 301 301 299 298 298 299 299 298 298 297 297 296 296 295 295 295 295 295 295 294 294 295 296 297 298 299 300 301 302 303 305 304 305 306 306 307 307 309 310 313 316 319 322 323 324 323 323 322 322 320 317 317 318 320 320 323
298 298 298 298 298 299 300 300 301 298 298 298 297 298 298 298 297 296 296 295 295 295 294 295 295 294 294 294 295 295 296 297 298 300 301 301 302 303 303 303 303 304 305 305 305 306 308 307 307 311 319 323 322 322 323 322 322 320 319 317 318 320 322
298 297 297 297 297 298 298 299 300 298 297 297 297 297 297 297 296 296 295 295 295 294 294 295 294 294 294 295 295 295 296 296 298 298 300 300 302 301 301 301 301 302 303 303 303 303 304 302 303 305 307 314 321 322 322 322 321 321 319 317 317 320 322
297 297 298 297 297 297 297 297 298 298 298 296 296 296 296 296 297 295 295 295 295 294 294 295 294 294 293 294 294 295 295 296 297 297 298 298 299 300 299 299 300 301 302 301 301 302 302 300 299 300 302 305 309 318 321 321 321 320 320 319 318 317 320
297 297 297 296 297 296 296 296 297 297 298 296 296 295 295 295 296 295 295 295 294 295 294 294 294 294 293 294 294 294 294 295 296 296 297 297 298 298 298 298 299 300 301 301 300 300 300 298 297 297 300 301 303 304 311 320 320 320 319 318 318 318 318
297 297 297 296 296 296 296 296 296 296 297 296 296 295 295 295 295 295 295 294 295 295 294 294 294 294 293 293 293 294 294 294 295 295 296 296 297 297 297 297 298 299 300 301 300 299 299 297 297 296 297 298 299 300 303 310 318 319 318 318 317 317 318
295 295 296 296 295 295 295 295 295 295 295 295 296 296 295 295 294 294 294 294 294 294 294 294 294 293 293 293 293 293 293 294 294 295 295 295 295 296 296 296 297 298 301 303 300 299 298 297 296 294 295 296 297 298 299 303 311 318 318 318 317 318 318
293 293 293 293 294 294 294 294 293 293 293 293 293 295 293 293 293 293 293 293 293 293 293 294 295 294 294 293 293 293 293 293 294 294 294 294 295 295 295 295 297 301 300 300 299 297 295 295 296 295 295 295 295 296 297 300 304 312 317 317 317 317 316
292 291 292 292 292 292 292 292 292 292 292 292 292 292 292 291 291 292 292 291 292 293 293 294 293 291 292 293 294 293 292 292 294 294 294 294 293 294 294 295 295 298 298 298 297 295 294 294 293 293 294 295 296 296 297 299 302 307 313 316 317 317 316
291 291 291 291 291 291 291 291 291 291 291 291 291 291 290 290 290 290 291 291 291 292 292 294 291 292 292 291 293 293 293 292 293 293 293 293 293 293 293 293 294 295 296 296 296 294 294 293 292 292 292 293 294 295 296 299 302 304 308 313 316 317 317
290 290 290 290 291 291 290 290 290 290 290 291 290 290 289 289 289 289 290 289 290 291 291 293 291 291 291 291 291 293 292 292 292 292 292 293 293 293 293 293 293 294 295 298 296 293 292 292 293 293 293 294 295 296 294 294 296 303 307 308 311 316 317
289 289 290 290 290 289 289 289 289 290 290 290 289 289 289 288 289 289 290 289 290 291 291 293 291 291 291 291 291 292 292 292 292 292 292 292 292 292 292 292 292 292 293 293 293 292 291 291 291 292 293 294 296 297 297 297 297 299 301 306 309 312 318
290 289 289 289 289 289 288 288 289 290 289 288 288 288 288 288 289 289 289 289 290 290 291 292 291 291 291 291 291 292 292 292 292 292 292 292 292 292 291 292 292 292 291 291 292 292 291 290 291 291 292 293 294 296 297 299 301 303 305 309 310 311 314
288 288 288 288 288 288 288 288 288 289 289 287 288 288 289 289 288 287 288 288 289 289 290 291 291 291 291 290 292 293 292 292 292 291 291 291 292 292 292 292 292 291 291 291 292 290 291 291 291 291 291 292 294 295 297 299 297 298 301 303 306 311 316
289 288 288 288 288 287 287 288 288 290 287 287 287 287 288 288 288 287 288 288 289 289 289 291 291 291 291 291 292 292 292 292 291 291 291 291 291 291 291 292 292 291 291 291 291 289 289 291 290 290 290 291 292 293 294 297 296 296 296 296 296 296 296
289 289 287 287 287 287 287 288 288 289 286 286 287 286 288 287 287 288 288 287 290 288 288 291 291 291 291 291 293 292 292 291 291 290 290 291 291 291 291 294 295 291 290 291 290 289 289 291 290 290 290 290 290 291 292 294 295 296 296 296 297 297 296
288 287 288 287 288 287 288 288 288 287 287 286 287 287 290 287 287 287 288 288 291 289 289 291 292 290 291 291 292 293 292 291 290 290 290 290 290 290 290 292 293 292 292 291 289 289 289 290 290 290 290 290 289 289 291 292 293 294 296 298 300 305 305
289 288 287 287 287 288 289 287 287 286 287 286 286 286 287 287 286 287 287 287 288 288 289 291 292 290 291 291 291 293 292 291 289 289 289 289 289 289 290 290 291 290 289 289 289 289 289 289 290 291 291 289 288 288 291 292 295 298 300 299 299 303 305
289 288 288 288 290 289 287 287 287 286 286 286 286 286 286 287 286 287 287 287 288 288 290 291 291 290 291 291 291 291 292 291 290 290 289 289 288 288 288 289 290 291 289 289 289 289 289 289 290 291 290 289 289 290 291 294 297 298 300 301 303 302 302
289 290 290 288 287 287 287 287 288 286 286 286 286 286 286 287 286 286 287 287 288 287 289 291 290 291 290 290 290 291 291 291 291 290 289 288 288 288 288 289 290 290 289 289 289 289 289 289 289 291 289 288 289 289 292 295 297 298 297 297 298 298 298
290 291 290 288 286 287 286 286 286 287 285 286 285 286 286 286 286 286 286 287 287 287 288 289 290 290 290 290 290 290 290 290 290 291 289 288 288 288 289 289 291 291 289 289 289 289 289 289 290 289 288 288 289 289 292 294 294 296 295 295 295 295 295
289 289 289 288 288 286 287 287 287 286 285 285 285 286 286 286 286 286 285 286 287 287 288 288 289 290 290 290 290 290 289 289 290 290 290 289 289 289 289 290 290 289 289 289 289 289 289 289 289 289 288 289 289 290 292 292 292 293 293 293 293 293 294
Wind_Speed
4 4 3 2 2 2 4 6 5 6 7 7 7 9 8 8 8 8 9 9 9 8 8 8 8 6 5 4 5 5 5 5 5 7 8 5 6 4 6 7 7 6 8 10 12 11 11 13 8 4 7 9 9 11 12 11 10 11 12 11 11 11 11
3 3 3 3 4 3 5 4 5 5 6 6 7 9 9 9 9 9 10 10 9 8 8 8 8 8 9 9 8 6 6 5 5 6 7 7 7 7 3 2 4 6 6 8 9 9 9 12 13 10 9 6 9 10 10 10 11 11 11 11 11 11 10
4 3 4 5 5 5 6 7 6 6 6 6 6 9 10 10 10 9 9 9 9 9 8 8 9 9 9 9 8 8 8 9 6 7 7 6 6 6 9 10 9 6 7 6 6 8 10 12 14 11 9 9 9 8 9 10 12 12 10 9 10 11 10
5 5 6 7 6 7 7 7 7 6 6 6 6 8 10 10 9 9 9 9 9 9 8 9 9 9 8 8 8 8 7 8 7 8 8 8 8 8 7 6 6 6 8 10 10 9 9 9 8 10 9 10 11 11 9 11 11 12 10 11 10 11 11
8 8 8 8 8 8 7 7 6 6 6 5 7 7 10 10 9 8 8 8 8 8 8 7 7 7 8 8 7 7 8 8 7 7 6 7 8 7 7 5 7 8 10 10 9 8 9 10 11 13 11 8 9 9 8 7 10 10 10 11 11 11 12
10 9 9 9 9 8 7 7 7 6 6 7 7 8 9 9 8 9 9 8 7 7 7 7 7 8 8 7 7 9 9 10 9 9 9 9 8 8 8 8 8 9 10 10 9 9 10 12 13 13 12 10 11 8 7 6 7 8 10 12 12 10 11
9 9 8 9 8 7 7 7 8 8 8 7 7 8 7 8 9 8 8 8 8 9 9 9 9 9 9 7 8 9 9 9 9 10 8 10 9 9 7 8 8 8 8 7 8 9 10 10 9 9 10 10 9 10 7 6 6 7 9 11 11 10 10
8 8 8 7 8 8 8 8 8 7 7 8 8 7 8 10 10 9 10 9 10 10 10 10 9 9 9 8 7 8 7 8 9 9 8 9 9 10 10 9 9 8 8 9 9 10 11 10 11 11 11 11 9 8 8 7 6 12 11 7 11 11 12
7 7 7 8 8 8 8 8 8 8 7 7 7 8 8 10 11 11 11 11 11 11 11 11 11 10 10 9 8 8 9 7 9 10 8 9 10 11 11 10 9 9 9 10 9 9 9 10 10 9 12 12 11 10 6 7 8 10 11 9 8 12 12
9 9 8 9 8 8 7 7 8 8 8 8 7 8 9 9 10 11 11 11 12 12 12 12 12 11 11 10 8 10 10 11 10 10 9 9 10 11 10 12 10 10 10 9 10 10 11 10 10 9 8 8 9 10 8 7 8 9 7 10 8 9 12
7 8 8 8 7 8 8 7 7 8 9 8 7 8 9 10 10 12 11 11 11 12 12 11 12 12 12 9 10 9 10 11 11 10 10 10 10 10 10 11 10 10 10 11 10 10 10 10 10 9 8 10 9 9 9 9 9 7 7 7 8 7 10
7 8 8 8 8 9 9 9 9 8 8 8 9 9 9 10 10 10 10 11 10 11 11 11 11 11 12 11 12 11 11 11 10 10 10 10 9 9 11 12 11 10 11 12 12 10 10 10 10 10 9 8 9 10 10 10 10 6 7 8 9 8 7
7 8 8 8 8 9 9 9 9 10 9 8 8 9 9 10 10 9 9 9 10 10 10 10 10 11 11 10 11 10 11 11 11 10 10 9 8 8 10 11 11 10 11 11 11 11 11 10 10 10 9 9 9 10 10 8 9 12 5 6 5 6 6
7 6 7 8 8 9 9 8 9 7 7 9 8 8 9 10 9 8 8 9 9 9 9 10 9 9 11 11 9 9 10 9 12 10 10 11 10 10 10 11 12 12 12 12 11 11 11 11 11 8 8 8 8 9 9 7 8 11 6 4 4 6 8
7 6 6 7 8 8 8 8 7 8 9 8 8 8 8 8 8 8 9 9 10 10 10 10 9 9 12 12 12 9 10 12 12 13 11 11 12 10 11 12 13 14 14 14 14 14 12 12 12 10 8 8 7 10 9 8 9 10 11 4 6 5 6
8 8 8 8 9 8 8 8 8 9 8 8 8 8 8 8 8 8 8 9 9 10 10 10 9 10 13 14 14 12 12 11 12 12 13 13 13 12 12 11 12 12 11 13 13 13 14 15 14 12 12 8 8 10 9 11 10 10 10 8 6 6 7
9 9 9 8 10 9 8 8 8 9 8 8 8 8 8 8 8 8 9 10 10 11 11 11 10 10 12 13 13 13 12 12 12 12 12 12 13 12 12 12 12 12 12 11 12 13 12 11 12 14 14 11 10 10 8 8 11 10 8 9 6 9 7
9 10 10 9 9 8 8 8 7 8 9 9 8 8 7 7 8 8 10 11 11 12 11 11 12 12 11 11 10 10 11 12 13 13 13 12 13 12 12 11 12 13 12 12 12 13 12 15 13 11 12 13 11 9 8 7 9 10 9 9 7 6 5
9 9 8 8 8 7 7 8 8 7 8 9 8 8 8 8 8 9 10 11 11 12 11 11 11 13 12 12 10 10 10 10 12 13 13 13 13 12 12 12 12 12 12 11 11 11 11 15 14 14 15 13 13 12 10 8 6 6 8 8 7 5 5
7 7 7 7 7 7 8 8 8 8 7 7 8 9 9 9 8 8 9 10 11 11 11 11 12 14 14 14 11 11 11 11 12 10 11 12 13 13 13 12 12 11 11 11 11 11 12 13 12 15 13 13 13 12 13 9 7 8 8 7 6 6 6
6 7 7 7 8 8 8 8 8 7 7 8 8 9 10 9 9 8 8 8 10 9 11 10 12 15 14 13 13 11 11 12 12 12 12 12 12 12 13 13 12 12 12 12 12 11 11 10 11 13 12 11 12 13 11 12 9 7 8 8 8 7 7
6 7 7 8 8 8 8 7 7 7 7 7 7 8 9 8 9 9 9 8 8 9 10 10 11 14 14 14 12 11 11 11 13 13 14 14 12 12 12 12 12 13 16 19 20 16 14 14 11 13 14 12 13 12 12 10 10 9 8 8 8 8 8
7 7 8 8 8 7 7 7 7 8 8 8 8 8 9 8 8 8 8 9 8 8 9 8 17 21 19 15 13 10 9 10 12 13 13 14 13 14 14 13 13 21 22 21 21 18 16 15 14 11 11 12 13 13 11 11 10 10 9 9 9 8 9
8 8 7 7 7 6 6 6 7 8 8 8 9 8 8 9 9 8 8 8 9 8 8 10 21 18 19 22 15 11 10 10 11 12 13 13 14 15 14 14 13 16 18 19 20 21 20 22 22 20 18 17 14 11 13 12 10 9 10 10 9 9 10
8 7 7 6 5 5 5 7 8 8 8 9 8 7 9 9 8 8 8 7 8 9 8 16 18 20 20 20 20 12 9 9 10 10 12 13 12 13 14 14 13 12 13 17 19 18 22 25 24 24 23 21 18 14 12 12 12 12 10 10 10 10 9
7 6 6 5 5 6 7 7 8 8 8 6 6 8 8 8 8 8 8 8 8 9 8 15 18 20 19 20 19 15 9 9 9 10 11 13 14 14 14 14 14 13 12 22 18 17 20 22 26 25 24 22 18 17 17 14 13 14 12 12 11 11 10
6 5 5 5 6 7 7 7 6 6 6 7 8 8 8 9 8 9 8 8 7 8 9 14 18 19 18 19 18 13 9 9 9 10 11 11 12 14 14 14 14 14 15 16 15 18 21 20 20 20 18 16 15 17 17 18 16 15 12 11 10 12 10
5 5 5 6 6 6 6 6 7 6 6 7 7 7 7 8 7 7 8 8 8 8 8 17 16 18 17 18 18 11 10 9 9 10 10 10 11 13 14 13 15 14 15 15 15 22 20 20 20 17 17 17 16 14 13 12 13 13 13 10 8 10 13
4 5 5 6 6 6 5 5 6 6 6 7 6 6 7 7 8 9 9 9 8 9 9 15 16 17 18 18 17 8 9 10 10 10 10 11 11 12 13 14 14 15 16 17 21 25 23 20 18 18 17 16 16 15 12 11 15 16 14 13 13 13 10
4 4 5 5 5 4 4 6 6 5 7 7 7 8 8 8 7 7 8 8 8 8 9 13 16 17 17 19 14 10 10 9 10 10 10 11 10 12 13 15 15 15 17 17 23 24 24 23 16 17 16 17 16 15 14 13 15 18 18 20 21 19 18
4 4 4 3 3 3 4 4 5 5 6 7 8 8 7 7 7 6 7 8 8 8 9 12 16 18 18 18 15 10 9 8 10 11 12 10 10 12 14 22 20 17 18 19 24 23 23 20 16 16 15 18 18 17 16 14 13 15 18 18 18 18 16
4 3 3 2 2 3 3 3 3 4 6 6 6 6 6 6 7 7 7 7 11 10 9 10 15 17 19 18 15 9 8 10 12 12 13 13 14 13 13 15 23 20 19 21 23 22 22 20 15 15 14 15 16 16 16 16 17 18 16 13 12 10 8
2 2 2 1 2 3 2 3 6 6 6 5 5 6 6 6 7 7 7 7 7 8 9 10 11 17 18 18 18 11 8 10 12 14 13 14 14 13 14 14 16 18 22 23 22 22 21 22 16 14 13 13 15 17 16 17 15 15 14 8 9 9 7
3 2 1 1 1 2 3 4 5 5 5 5 5 6 7 6 7 7 7 7 7 8 7 10 12 17 17 18 19 15 9 11 10 11 11 12 12 12 13 13 9 17 23 23 22 22 21 21 20 14 12 13 14 18 19 13 15 17 11 11 8 7 7
2 3 1 1 3 3 3 4 3 4 4 4 6 6 6 6 6 6 6 7 8 9 10 13 10 13 17 17 17 18 9 8 11 10 10 9 11 12 11 10 10 17 23 22 22 22 22 21 21 13 16 21 23 23 17 12 10 9 8 9 10 9 9
3 2 2 2 3 3 2 4 3 3 4 5 5 6 7 7 7 7 7 7 7 8 8 9 13 11 15 17 17 16 17 12 14 8 7 9 11 11 10 12 12 21 21 22 22 22 20 22 17 16 23 23 22 23 17 11 11 11 9 9 10 10 10
3 2 2 2 2 2 1 1 2 3 3 4 5 6 6 6 6 7 8 8 8 8 8 7 8 14 13 16 16 16 16 16 15 9 8 7 8 8 8 11 15 20 20 21 21 21 19 19 17 22 22 24 22 19 13 12 12 12 10 11 11 11 11
Wind_Direction
79 97 85 67 45 53 42 36 25 25 19 20 23 23 15 9 12 13 13 14 14 4 8 3 349 333 315 301 294 280 269 257 258 267 275 253 263 253 207 234 234 242 243 242 248 258 283 289 278 226 242 236 231 233 231 233 233 227 227 218 216 211 211
63 77 91 74 63 41 56 33 30 23 22 21 29 28 20 16 20 19 16 15 13 6 12 5 359 355 350 343 337 319 309 295 272 270 270 277 263 261 332 279 250 254 264 258 264 255 263 281 276 267 262 229 232 237 232 229 232 230 227 226 221 217 212
45 47 59 54 48 36 45 29 18 21 13 17 27 33 24 22 24 23 20 18 13 6 10 1 359 356 351 346 340 333 329 324 313 303 297 299 306 290 261 263 256 246 244 255 244 257 251 243 265 270 259 257 249 235 223 228 227 228 229 227 222 217 215
35 45 43 39 33 36 37 29 24 16 11 14 22 35 31 19 18 22 23 19 18 13 7 5 2 349 345 338 331 322 315 313 311 303 296 281 270 273 283 270 271 285 288 286 275 256 253 262 265 263 263 246 247 259 226 221 224 225 215 222 220 215 213
36 40 43 40 31 35 34 31 21 21 16 17 26 38 29 15 11 14 20 19 19 10 11 358 355 351 346 339 336 332 326 315 303 304 306 305 306 302 299 297 287 283 277 271 273 282 287 283 276 277 274 269 252 241 245 209 222 218 211 219 221 218 213
36 35 39 38 28 29 23 23 23 24 19 19 24 35 33 17 16 13 15 13 6 6 4 1 353 355 355 348 335 335 337 335 333 327 315 301 284 275 274 262 256 253 254 259 258 261 260 253 251 259 262 256 259 256 241 203 226 216 214 218 220 214 212
36 37 38 38 30 26 21 21 22 19 18 12 12 33 23 23 24 22 17 14 9 6 4 360 358 0 356 349 343 344 339 333 334 335 328 325 315 300 289 293 288 280 280 269 264 269 273 277 270 262 272 262 246 254 248 220 220 222 226 224 216 212 213
41 37 37 40 36 32 25 29 24 20 18 12 12 28 23 20 14 12 12 12 7 2 360 358 354 351 353 346 340 339 329 333 332 327 325 326 320 315 306 295 289 282 273 266 264 263 264 261 262 266 263 266 263 246 248 236 234 221 235 210 210 212 211
44 44 44 43 39 37 35 34 30 25 20 15 14 19 23 22 14 8 7 6 2 3 3 0 356 351 349 346 339 341 335 341 332 329 328 325 321 322 316 310 296 291 285 282 272 265 259 260 261 261 260 252 256 261 239 245 229 240 223 225 211 210 207
46 45 46 43 39 35 35 36 34 31 29 26 23 20 14 20 16 11 4 4 4 2 1 359 355 354 349 345 343 342 343 342 337 335 333 330 326 323 321 320 315 307 299 293 285 277 266 260 260 262 254 254 259 259 264 250 236 243 218 203 217 211 207
53 53 49 50 45 46 40 36 34 30 26 26 30 27 26 23 19 16 12 10 6 7 3 360 357 354 350 349 348 349 345 342 339 336 336 332 326 326 323 323 319 313 311 303 297 290 276 269 266 260 254 244 241 251 254 257 258 215 234 206 210 209 203
50 55 54 51 49 49 43 39 39 33 24 26 29 30 30 30 24 18 15 11 7 5 2 1 357 355 358 356 353 347 343 340 335 328 327 330 328 328 327 323 320 314 314 309 304 297 289 279 269 258 253 246 244 243 250 255 261 235 202 215 216 212 195
52 57 54 52 50 47 45 42 37 35 29 27 29 28 35 31 22 18 13 11 7 4 1 360 357 354 355 356 350 344 341 333 328 328 324 324 321 316 319 321 318 316 315 310 306 305 300 290 278 269 255 250 246 243 244 244 237 256 201 221 205 205 195
52 55 60 56 55 50 45 42 41 36 34 35 26 30 30 26 21 16 13 13 9 5 360 359 359 353 358 350 340 335 331 330 335 326 325 324 323 324 320 321 322 320 321 315 310 306 302 298 295 273 259 252 247 244 242 237 240 249 242 201 201 202 198
50 51 55 49 51 49 46 44 37 36 39 29 27 28 27 24 21 16 17 13 11 8 3 1 359 359 359 352 344 338 338 333 339 338 330 326 327 329 326 328 338 343 338 332 330 326 318 307 298 291 271 260 253 254 233 241 243 242 244 194 225 211 212
49 49 50 46 43 39 37 38 38 39 36 31 26 26 20 23 18 17 19 15 12 11 4 1 360 359 0 359 352 348 339 335 333 332 337 338 338 340 342 339 340 340 341 339 340 338 340 337 323 302 288 270 266 261 246 225 233 235 236 228 204 205 206
52 49 50 45 45 40 37 35 36 39 34 31 29 21 22 18 19 16 16 13 13 10 5 2 360 360 0 358 355 349 342 340 336 336 337 338 339 340 340 339 342 339 337 339 342 342 342 338 336 331 314 285 267 268 255 240 226 235 233 234 204 208 203
50 48 48 44 43 39 35 34 32 35 31 29 23 19 17 12 19 14 15 13 9 10 5 1 360 357 356 354 348 345 345 348 350 345 342 340 339 340 340 341 338 338 341 339 341 343 342 340 334 328 327 325 303 268 259 250 244 234 227 222 223 215 196
46 46 45 42 35 31 30 30 28 27 27 24 18 18 17 11 14 11 13 10 9 9 4 2 1 358 354 353 348 346 345 341 347 350 348 344 341 339 339 337 339 338 341 344 338 336 340 340 336 329 327 328 327 313 281 255 236 242 242 238 226 212 195
49 46 42 37 32 27 25 23 21 19 16 15 18 14 12 14 10 11 8 8 8 6 3 1 2 360 355 353 347 346 343 342 344 346 346 345 345 344 339 336 334 336 338 343 341 338 338 337 334 326 323 324 323 325 319 287 250 233 228 233 233 220 210
50 47 42 36 31 27 22 18 14 8 6 10 13 13 10 8 6 8 7 7 6 4 3 3 5 2 356 351 349 344 345 346 344 345 346 346 346 344 342 339 337 335 337 343 342 337 343 333 327 321 321 323 324 325 318 315 289 245 234 226 222 219 220
47 44 39 36 30 24 20 14 13 11 14 13 11 12 11 8 6 5 4 3 0 3 7 4 6 1 357 352 349 346 347 345 347 347 348 347 345 343 344 342 337 332 335 339 338 338 337 334 329 322 320 323 324 320 312 307 305 273 243 233 228 216 217
51 47 42 37 33 29 24 22 20 22 22 20 18 15 14 11 11 8 3 1 2 4 4 4 359 357 1 359 349 348 345 345 349 350 346 345 345 345 344 342 335 335 337 337 337 336 333 328 323 311 308 316 316 313 304 302 296 294 272 246 234 220 215
54 50 46 44 40 34 26 20 24 25 24 21 17 14 14 16 13 6 6 1 2 3 359 3 358 355 357 359 358 351 350 344 345 350 349 344 342 342 342 340 336 336 338 338 338 338 334 332 330 325 318 308 295 288 298 297 287 289 288 262 246 230 224
57 50 50 46 37 29 21 23 23 20 19 17 12 11 18 13 11 7 4 0 3 1 356 360 357 356 356 357 358 354 350 346 344 344 347 346 342 342 340 339 338 336 336 339 340 337 334 333 331 327 323 317 310 294 249 250 282 291 283 283 261 237 228
61 56 50 42 32 25 22 17 12 9 9 3 6 17 11 10 9 5 5 1 356 356 349 355 356 356 354 354 352 354 352 345 343 341 341 344 344 344 343 340 339 337 336 339 340 338 338 333 329 327 321 316 310 312 314 290 255 249 265 267 279 266 233
66 61 48 42 36 30 23 16 5 2 5 4 14 12 10 10 6 7 3 358 344 354 351 355 354 354 352 351 349 350 351 346 343 341 341 340 342 344 344 342 340 338 338 338 336 339 337 332 330 326 324 322 318 317 316 310 305 293 263 251 259 267 265
68 55 45 41 38 31 22 11 10 4 10 10 13 10 7 5 3 3 359 357 353 353 353 351 352 353 352 351 345 350 351 348 344 343 340 339 339 344 344 342 342 340 339 337 336 338 334 332 330 324 321 319 318 313 309 313 315 316 310 296 254 247 262
67 55 48 42 39 25 19 12 14 359 10 8 9 11 12 11 7 360 355 354 351 354 346 346 353 354 353 352 346 351 350 350 347 341 342 342 340 347 346 345 346 343 340 337 338 335 334 333 329 327 323 319 319 316 306 303 298 298 296 296 295 288 273
76 64 53 52 36 25 17 12 13 10 18 11 10 11 7 3 353 354 350 351 351 351 347 347 353 356 356 354 353 354 352 348 347 344 341 339 341 346 348 349 349 347 342 340 338 334 334 335 332 330 326 324 320 318 311 314 310 302 297 295 291 281 273
87 72 65 63 49 25 19 16 22 12 28 12 13 3 354 356 351 352 353 352 353 355 345 345 356 357 358 358 356 354 350 347 344 345 341 337 343 347 348 350 352 349 345 341 336 335 335 338 335 330 329 328 327 324 319 320 318 309 299 292 285 276 271
100 93 83 60 52 42 22 25 356 13 23 21 10 353 352 358 351 355 356 352 355 0 346 349 357 357 358 360 1 353 353 349 349 346 345 345 350 348 347 350 350 345 344 340 336 337 337 341 334 332 332 330 327 323 318 317 313 309 309 313 309 307 288
112 125 125 64 46 39 10 28 20 22 17 17 2 357 354 358 358 354 347 352 353 352 350 347 356 357 359 358 1 358 349 357 351 344 346 350 349 348 349 347 342 342 342 341 340 341 340 342 341 335 337 334 329 324 319 313 308 308 308 286 285 295 304
138 160 166 122 61 49 38 38 26 28 12 1 6 8 7 358 357 352 351 352 354 356 353 352 352 358 358 358 357 2 352 355 349 345 343 348 351 347 346 343 327 341 343 342 343 342 343 344 345 344 341 334 324 317 319 313 321 323 344 351 353 356 355
150 151 140 100 74 47 23 38 41 26 6 7 11 9 3 0 355 347 347 354 0 353 349 352 355 352 357 356 355 355 358 347 349 345 346 349 350 350 342 339 336 339 341 344 345 345 344 347 346 354 342 336 333 337 335 322 320 332 356 14 13 6 358
160 156 129 115 103 65 15 33 20 21 22 15 15 11 5 357 354 353 356 1 357 354 350 348 354 354 353 355 353 350 349 348 349 350 351 349 349 342 342 342 339 343 343 345 346 345 346 349 354 350 346 345 342 342 341 342 338 346 357 13 25 17 357
155 136 132 111 89 81 22 0 2 17 12 26 15 11 2 352 354 359 359 358 0 354 349 351 343 356 355 352 348 348 345 343 349 350 346 347 340 337 335 343 342 339 344 347 346 346 346 354 354 351 353 350 348 348 349 346 354 352 356 9 19 22 2